This is the latest recevied weather packets stored in our database for station/object KJ4W. If no packets are shown the sender has not sent any weather packets the latest 10 day(s).
| Time | Temp. | Humidity | Pressure | Rain* | Wind** | Luminosity | Snow |
|---|---|---|---|---|---|---|---|
| 1777600741 | 13.33° C | 66% | 1016 hPa | 0 mm | - | - | - |
| 1777599838 | 13.33° C | 68% | 1015.9 hPa | 0 mm | - | - | - |
| 1777598941 | 13.89° C | 65% | 1015.8 hPa | 0 mm | - | - | - |
| 1777598040 | 13.89° C | 62% | 1015.6 hPa | 0 mm | - | - | - |
| 1777597138 | 14.44° C | 57% | 1015.6 hPa | 0 mm | - | - | - |
| 1777596239 | 15° C | 53% | 1015.3 hPa | 0 mm | - | - | - |
| 1777595339 | 15° C | 52% | 1015.4 hPa | 0 mm | - | - | - |
| 1777594438 | 15.56° C | 52% | 1015.3 hPa | 0 mm | - | - | - |
| 1777593538 | 16.11° C | 48% | 1015.5 hPa | 0 mm | - | - | - |
| 1777592639 | 16.67° C | 50% | 1015.6 hPa | 0 mm | - | - | - |
| 1777591739 | 16.67° C | 42% | 1015.4 hPa | 0 mm | - | - | - |
| 1777590838 | 17.22° C | 43% | 1015.3 hPa | 0 mm | - | - | - |
| 1777589938 | 17.22° C | 42% | 1015.4 hPa | 0 mm | - | - | - |
| 1777589042 | 17.78° C | 40% | 1015.4 hPa | 0 mm | - | - | - |
| 1777588139 | 17.78° C | 38% | 1015.3 hPa | 0 mm | - | - | - |
| 1777587238 | 18.33° C | 40% | 1015.4 hPa | 0 mm | - | - | - |
| 1777586338 | 18.33° C | 39% | 1015.6 hPa | 0 mm | - | - | - |
| 1777585438 | 18.89° C | 37% | 1015.7 hPa | 0 mm | - | - | - |
| 1777584539 | 18.33° C | 39% | 1015.8 hPa | 0 mm | - | - | - |
| 1777583639 | 18.33° C | 42% | 1015.9 hPa | 0 mm | - | - | - |
| 1777582738 | 17.78° C | 43% | 1016.2 hPa | 0 mm | - | - | - |
| 1777581837 | 18.33° C | 37% | 1016.3 hPa | 0 mm | - | - | - |
| 1777580939 | 18.33° C | 40% | 1016.5 hPa | 0 mm | - | - | - |
| 1777580037 | 18.33° C | 40% | 1016.7 hPa | 0 mm | - | - | - |
| 1777578239 | 17.78° C | 37% | 1016.9 hPa | 0 mm | - | - | - |
* Rain latest hour (hover to see other rain measurements)
** Current wind speed in m/s (hover to see current wind gust speed)